Scottsbluff, NE

2:51 AM MST on November 23, 2017 (GMT -0700)
Heilig

Weather History for KBFF - January, 2004

Change the Weather History Date:

Sunday, January 18, 2004

  Actual Average Record
Temperature  
Mean Temperature 29 °F 28 °F  
Max Temperature 35 °F 41 °F 62 °F (1965)
Min Temperature 21 °F 14 °F -24 °F (1984)
Degree Days  
Heating Degree Days 36 38  
Month to date heating degree days 689  
Since 1 July heating degree days 3461  
Cooling Degree Days 0 0  
Month to date cooling degree days 0  
Year to date cooling degree days 0  
Moisture  
Dew Point 27 °F    
Average Humidity 89    
Maximum Humidity 96    
Minimum Humidity 72    
Precipitation  
Precipitation 0.00 in 0.02 in 0.40 in (1988)
Month to date precipitation 0.24  
Year to date precipitation 0.24  
Sea Level Pressure  
Sea Level Pressure 30.12 in    
Wind  
Wind Speed 6 mph (ESE)    
Max Wind Speed 10 mph    
Max Gust Speed -    
Visibility 8 miles    
Events      
T = Trace of Precipitation, MM = Missing Value Source: NWS Daily Summary

Daily Weather History Graph

Daily Weather History Graph

Search for Another Location

Airport or City:

Trip Planner

Search our weather history database for the weather conditions in past years. The results will help you decide how hot, cold, wet, or windy it might be!

Date:

Astronomy

Jan. 18, 2004 Rise Set
Actual Time 7:18 AM MST 4:51 PM MST
Civil Twilight 6:47 AM MST 5:22 PM MST
Nautical Twilight 6:13 AM MST 5:56 PM MST
Astronomical Twilight 5:40 AM MST 6:29 PM MST
Moon 4:17 AM MST (1/18) 1:23 PM MST (1/18)
Length of Visible Light 10h 34m
Length of Day
9h 33m
Waning Crescent, 13% of the Moon is Illuminated
Jan 18
Waning Crescent
Jan 21
New
Jan 28
First Quarter
Feb 6
Full
Feb 13
Last Quarter

Hourly Weather History & Observations

Time (MST) Temp. Windchill Dew Point Humidity Pressure Visibility Wind Dir Wind Speed Gust Speed Precip Events Conditions
12:54 AM 30.0 °F 24.1 °F 28.0 °F 92% 30.14 in 10.0 mi East 5.8 mph - N/A   Overcast
1:37 AM 30.2 °F 23.4 °F 28.4 °F 93% 30.10 in 10.0 mi East 6.9 mph - N/A   Overcast
1:54 AM 30.0 °F 23.2 °F 28.9 °F 96% 30.14 in 9.0 mi East 6.9 mph - N/A   Overcast
2:27 AM 30.2 °F 26.7 °F 28.4 °F 93% 30.11 in 9.0 mi SSE 3.5 mph - N/A   Overcast
2:54 AM 30.0 °F 24.1 °F 28.9 °F 96% 30.14 in 8.0 mi ESE 5.8 mph - N/A   Overcast
3:25 AM 30.2 °F 25.4 °F 28.4 °F 93% 30.10 in 7.0 mi SE 4.6 mph - N/A   Overcast
3:54 AM 30.0 °F 23.2 °F 28.0 °F 92% 30.14 in 7.0 mi SE 6.9 mph - N/A   Overcast
4:54 AM 30.0 °F 24.1 °F 28.9 °F 96% 30.16 in 7.0 mi SE 5.8 mph - N/A   Overcast
5:28 AM 30.2 °F 25.4 °F 28.4 °F 93% 30.10 in 6.0 mi SE 4.6 mph - N/A   Overcast
5:54 AM 30.0 °F 25.2 °F 28.9 °F 96% 30.17 in 6.0 mi SE 4.6 mph - N/A   Overcast
6:54 AM 28.9 °F 23.9 °F 27.0 °F 92% 30.19 in 8.0 mi South 4.6 mph - N/A   Overcast
7:54 AM 28.0 °F 21.7 °F 27.0 °F 96% 30.19 in 7.0 mi South 5.8 mph - N/A   Overcast
8:54 AM 28.9 °F 21.9 °F 26.1 °F 89% 30.20 in 7.0 mi South 6.9 mph - N/A   Overcast
9:54 AM 28.9 °F 22.8 °F 26.1 °F 89% 30.21 in 9.0 mi SSE 5.8 mph - N/A   Overcast
10:54 AM 30.0 °F 24.1 °F 26.1 °F 85% 30.18 in 9.0 mi SE 5.8 mph - N/A   Overcast
11:54 AM 30.9 °F 25.2 °F 27.0 °F 85% 30.16 in 10.0 mi East 5.8 mph - N/A   Overcast
12:13 PM 32.0 °F 25.6 °F 26.6 °F 80% 30.07 in 10.0 mi East 6.9 mph - N/A   Overcast
12:54 PM 33.1 °F 26.9 °F 26.1 °F 75% 30.12 in 10.0 mi East 6.9 mph - N/A   Mostly Cloudy
1:16 PM 33.8 °F 26.4 °F 26.6 °F 75% 30.04 in 10.0 mi East 9.2 mph - N/A   Scattered Clouds
1:54 PM 34.0 °F 27.2 °F 27.0 °F 75% 30.09 in 10.0 mi ESE 8.1 mph - N/A   Clear
2:54 PM 35.1 °F 27.4 °F 27.0 °F 72% 30.07 in 10.0 mi ESE 10.4 mph - N/A   Clear
3:54 PM 34.0 °F 27.2 °F 27.0 °F 75% 30.08 in 10.0 mi East 8.1 mph - N/A   Clear
4:54 PM 30.0 °F 22.4 °F 27.0 °F 88% 30.09 in 10.0 mi East 8.1 mph - N/A   Clear
5:54 PM 28.0 °F 20.0 °F 26.1 °F 92% 30.10 in 10.0 mi East 8.1 mph - N/A   Clear
6:54 PM 28.0 °F 19.3 °F 25.0 °F 88% 30.09 in 10.0 mi East 9.2 mph - N/A   Clear
7:54 PM 26.1 °F 16.8 °F 24.1 °F 92% 30.10 in 8.0 mi ESE 9.2 mph - N/A   Clear
8:54 PM 25.0 °F 15.5 °F 24.1 °F 96% 30.10 in 7.0 mi ESE 9.2 mph - N/A   Clear
9:54 PM 24.1 °F 15.2 °F 23.0 °F 96% 30.10 in 6.0 mi ESE 8.1 mph - N/A   Clear
10:54 PM 23.0 °F 13.9 °F 21.0 °F 92% 30.09 in 6.0 mi ESE 8.1 mph - N/A   Clear
11:54 PM 21.9 °F 14.5 °F 21.0 °F 96% 30.08 in 6.0 mi ESE 5.8 mph - N/A   Clear